[[{"header":{"parameterUnit":"m.s-1","parameterCategory":1,"la1":30.2991,"la2":30.254,"lo1":-89.0895,"lo2":-89.0444,"dy":0.0017,"dx":0.0017,"nx":28,"ny":28,"refTime":"2025-06-16T03:00:00:Z","depth":0,"parameterNumber":2,"parameterNumberName":"U-component_of_WINDS"},"data":[0,0,0,0,0,0,0,0,0,0,0,0,0,0,0,0,0,0,0,0,0,0,0,0,0,0,0,0,0,0,0,0,0,0,0,0,0,0,0,0,0,0,0,0,0,0,0,0,0,0,0,0,0,0,0,0,0,0,1.9388,1.9388,0,1.943,1.943,1.943,1.9351,1.9348,1.9346,1.9343,1.9387,1.9391,1.9394,0,0,0,0,0,0,0,0,0,0,0,0,0,1.9238,1.9242,1.9388,1.9388,1.9389,1.9429,1.943,1.9431,1.9351,1.9348,1.9345,1.9342,1.9386,1.939,1.9395,0,0,0,0,0,0,0,0,0,0,0,0,0,1.9294,1.9243,1.9388,1.9354,1.9351,1.9429,1.943,1.9431,1.9352,1.9348,1.9344,1.934,1.9385,1.939,1.9395,1.9508,0,0,1.9412,1.9414,0,0,0,0,0,0,0,0,1.9291,1.93,1.9358,1.9356,1.9354,1.9381,1.9394,1.9457,1.9353,1.9352,1.9343,1.9338,1.9388,1.9393,1.941,1.951,1.9512,1.9413,1.9416,1.9418,1.942,0,0,0,0,0,0,0,1.9287,1.9298,1.9404,1.9359,1.9356,1.9337,1.934,1.9405,1.9392,1.9352,1.9346,1.9352,1.9386,1.9405,1.941,1.9513,1.9412,1.9417,1.9421,1.9423,1.9705,1.9709,0,0,0,0,0,0,1.9288,1.9295,1.9403,1.9405,1.9312,1.9343,1.9347,1.9376,1.9391,1.9389,1.9355,1.9348,1.9397,1.9404,1.9412,1.9542,1.9418,1.9423,1.9426,1.9701,1.9706,1.9711,0,0,0,0,0,0,1.9285,1.9298,1.9401,1.9349,1.936,1.9349,1.9383,1.9379,1.9397,1.9394,1.9391,1.9377,1.9395,1.9404,1.9484,1.9543,1.9426,1.9431,1.9696,1.9702,1.9708,1.9807,0,0,0,0,0,0,1.9281,1.9298,1.9341,1.935,1.9363,1.9473,1.9387,1.9383,1.9407,1.9398,1.9413,1.9412,1.9392,1.9476,1.949,1.9548,1.9435,1.9691,1.9699,1.9706,1.9798,1.9816,1.9831,0,0,0,0,0,1.9276,1.9368,1.9343,1.9357,1.9417,1.9477,1.9484,1.946,1.9412,1.9455,1.9452,1.9411,1.9535,1.9485,1.9499,1.9561,1.9687,1.9696,1.9706,1.9791,1.9812,1.983,0,0,0,0,0,0,1.9366,1.9368,1.9341,1.9439,1.9458,1.9463,1.9517,1.9484,1.9517,1.9508,1.9476,1.948,1.9566,1.9572,1.9517,1.9669,1.9603,1.9615,1.9663,1.9683,1.9699,1.9695,1.9439,0,0,0,0,0,1.9397,1.9446,1.9445,1.9531,1.9542,1.9528,1.9553,1.9533,1.9552,1.9559,1.9563,1.9583,1.9625,1.9655,1.9694,1.9799,1.98,1.9848,1.9864,1.9878,1.9889,1.9942,1.9962,1.9742,1.9742,1.9742,0,0,1.9463,1.947,1.9502,1.955,1.9562,1.9612,1.9536,1.9593,1.9629,1.9568,1.9643,1.9646,1.9667,1.9759,1.98,1.9766,1.995,1.989,1.99,1.9904,1.9954,1.9975,1.9993,1.9748,1.9747,1.9746,0,0,1.9606,1.9618,1.9689,1.9703,1.9722,1.9712,1.9729,1.9739,1.9738,1.9813,1.9767,1.9811,1.9886,1.9902,1.9919,2.0067,2.003,2.0081,2.0166,2.0218,2.0235,2.025,2.0301,2.032,2.0092,2.0093,2.0093,0,1.9685,1.9759,1.973,1.979,1.9811,1.9757,1.9829,1.9844,1.9876,1.9891,1.9853,1.9945,1.9955,2.0049,2.0084,2.0102,2.0119,2.0079,2.0235,2.025,2.0264,2.0311,2.0331,2.0099,2.0098,2.0097,2.0097,0,1.9853,1.9905,1.996,1.9991,2.0019,2.0084,2.0065,2.0097,2.0073,2.0067,2.0142,2.0152,2.0192,2.0213,2.0192,2.0303,2.0281,2.024,2.0172,2.0291,2.0335,2.0354,2.0107,2.0105,2.0103,2.0102,0,0,2.0055,2.0068,2.0088,2.01,2.0117,2.0157,2.0219,2.0257,2.0283,2.0307,2.0358,2.0422,2.0383,2.0403,2.0383,2.0429,2.0542,2.0381,2.0381,2.0409,2.0663,2.0693,2.0715,2.0518,2.0522,2.0524,2.0661,0,2.0196,2.0303,2.0278,2.0383,2.0429,2.0378,2.0432,2.0448,2.0444,2.0482,2.0477,2.0522,2.0468,2.0479,2.0523,2.0519,2.0592,2.0509,2.0564,2.0566,2.0558,2.0738,2.0771,2.0899,2.0678,2.0681,2.0683,0,2.0375,2.0403,2.0513,2.0519,2.0538,2.0587,2.0618,2.0656,2.0673,2.0666,2.0688,2.0658,2.0718,2.0651,2.0733,2.0677,2.0698,2.0699,2.0704,2.0706,2.0631,2.0744,2.094,2.0958,2.0711,2.0709,2.0707,0,2.0508,2.0574,2.0647,2.066,2.0671,2.0706,2.0712,2.0724,2.0748,2.0775,2.079,2.0825,2.0844,2.0871,2.0851,2.0804,2.0936,2.0867,2.0931,2.0932,2.096,2.0958,2.116,2.0977,2.0977,2.0976,2.0976,0,2.0667,2.0735,2.0707,2.0752,2.0827,2.0798,2.0872,2.0873,2.0884,2.0927,2.0886,2.0928,2.0899,2.0939,2.0923,2.0993,2.1002,2.0997,2.0992,2.1,2.1001,2.1012,2.1002,2.0981,2.098,2.0979,2.0979,0,2.0828,2.0813,2.0888,2.0892,2.0894,2.0949,2.0951,2.0992,2.0984,2.104,2.1051,2.1038,2.1082,2.1065,2.1112,2.1101,2.1189,2.1174,2.1184,2.1179,2.1243,2.1236,2.1457,2.1484,2.1286,2.1288,2.129,0,2.093,2.0981,2.0989,2.1014,2.1023,2.1066,2.1089,2.1062,2.1088,2.1109,2.1148,2.1188,2.1218,2.129,2.1285,2.132,2.1303,2.1379,2.1309,2.1314,2.1302,2.1298,2.1302,2.1392,2.1394,2.1396,2.1398,0,2.111,2.11,2.1134,2.1166,2.1195,2.1219,2.1239,2.1263,2.1237,2.1268,2.1311,2.1335,2.1381,2.1421,2.1452,2.1458,2.1423,2.142,2.1436,2.1444,2.1447,2.1444,2.122,2.1415,2.1413,2.1412,2.1411,2.141,2.1243,2.1285,2.1297,2.1337,2.1349,2.1368,2.1406,2.1402,2.1438,2.1473,2.1455,2.1506,2.1519,2.1557,2.1567,2.1605,2.1576,2.16,2.1606,2.1612,2.1619,2.1442,2.1611,2.1611,2.161,2.161,2.161,0,2.142,2.1425,2.1461,2.149,2.1521,2.1485,2.1506,2.1533,2.1578,2.1593,2.1623,2.1672,2.171,2.1708,2.1742,2.1773,2.1758,2.1783,2.1779,2.1781,2.1645,2.1626,2.1794,2.1794,2.1794,2.1794,2.1794,2.1794,2.1516,2.1584,2.1574,2.1648,2.1652,2.17,2.1714,2.1731,2.1743,2.1799,2.183,2.1828,2.1835,2.187,2.1902,2.19,2.1914,2.1945,2.1937,2.1809,2.1791,2.1773,2.1756,2.1948,2.1949,2.207,2.2071,2.2072]},{"header":{"parameterUnit":"m.s-1","parameterCategory":1,"la1":30.2991,"la2":30.254,"lo1":-89.0895,"lo2":-89.0444,"dy":0.0017,"dx":0.0017,"nx":28,"ny":28,"refTime":"2025-06-16T03:00:00:Z","depth":0,"parameterNumber":3,"parameterNumberName":"V-component_of_WINDS"},"data":[0,0,0,0,0,0,0,0,0,0,0,0,0,0,0,0,0,0,0,0,0,0,0,0,0,0,0,0,0,0,0,0,0,0,0,0,0,0,0,0,0,0,0,0,0,0,0,0,0,0,0,0,0,0,0,0,0,0,3.3631,3.3632,0,3.3729,3.373,3.3731,3.368,3.3678,3.3675,3.3673,3.3769,3.3774,3.3779,0,0,0,0,0,0,0,0,0,0,0,0,0,3.3391,3.3396,3.3631,3.3632,3.3633,3.3729,3.373,3.3732,3.3681,3.3678,3.3675,3.3672,3.3767,3.3773,3.3779,0,0,0,0,0,0,0,0,0,0,0,0,0,3.3493,3.3398,3.363,3.362,3.362,3.3729,3.373,3.3732,3.3682,3.3678,3.3674,3.367,3.3765,3.3773,3.378,3.3904,0,0,3.3803,3.3806,0,0,0,0,0,0,0,0,3.3487,3.3502,3.362,3.3621,3.3621,3.3689,3.3681,3.379,3.3683,3.3658,3.3673,3.3668,3.3745,3.3754,3.3781,3.3909,3.3913,3.3804,3.3808,3.3811,3.3813,0,0,0,0,0,0,0,3.348,3.3497,3.3669,3.3622,3.3622,3.3607,3.3617,3.3701,3.3722,3.366,3.3656,3.3669,3.3744,3.3774,3.3783,3.3914,3.3803,3.381,3.3815,3.3818,3.4143,3.4147,0,0,0,0,0,0,3.3475,3.3492,3.3666,3.3672,3.3543,3.3615,3.3626,3.3671,3.3721,3.3725,3.3672,3.3666,3.3763,3.3774,3.3786,3.3931,3.3811,3.3818,3.3823,3.4139,3.4144,3.4149,0,0,0,0,0,0,3.347,3.3491,3.3662,3.3581,3.3602,3.3623,3.3673,3.3675,3.3704,3.373,3.3733,3.3699,3.376,3.3775,3.3874,3.3934,3.3822,3.3828,3.4134,3.4141,3.4146,3.4225,0,0,0,0,0,0,3.3463,3.3489,3.3539,3.3583,3.3607,3.3752,3.3677,3.3679,3.3718,3.3711,3.3756,3.376,3.3758,3.3863,3.3882,3.3942,3.3834,3.4129,3.4137,3.4144,3.4217,3.4233,3.4247,0,0,0,0,0,3.3455,3.3557,3.3542,3.3563,3.3669,3.3755,3.3769,3.3766,3.3723,3.3771,3.3787,3.3758,3.3925,3.3874,3.3894,3.3958,3.4125,3.4135,3.4144,3.4211,3.423,3.4247,0,0,0,0,0,0,3.352,3.3563,3.3546,3.3667,3.3708,3.3747,3.3808,3.3788,3.3841,3.3832,3.3825,3.3836,3.3938,3.3958,3.3901,3.4078,3.4018,3.4032,3.4061,3.408,3.4095,3.4087,3.384,0,0,0,0,0,3.3548,3.3616,3.365,3.3752,3.3774,3.3787,3.3825,3.3819,3.3861,3.3878,3.3901,3.3942,3.4002,3.4042,3.41,3.422,3.4227,3.4273,3.4288,3.43,3.4312,3.4372,3.4392,3.4179,3.4179,3.4179,0,0,3.3607,3.3639,3.3683,3.3766,3.3797,3.3865,3.3803,3.3878,3.3928,3.3889,3.3983,3.4002,3.4045,3.4154,3.4203,3.4174,3.4371,3.4312,3.4321,3.4326,3.4383,3.4404,3.4421,3.4186,3.4185,3.4184,0,0,3.3749,3.3782,3.3869,3.3901,3.3949,3.3957,3.3977,3.4019,3.403,3.4125,3.4095,3.4153,3.4259,3.429,3.432,3.4469,3.4443,3.4488,3.4565,3.4624,3.4641,3.4655,3.4705,3.4724,3.45,3.45,3.45,0,3.3816,3.392,3.3916,3.3993,3.4029,3.3997,3.4082,3.4113,3.4177,3.4201,3.4168,3.4297,3.4325,3.4438,3.4474,3.4501,3.4521,3.4483,3.4639,3.4654,3.4667,3.4715,3.4734,3.4505,3.4504,3.4504,3.4503,0,3.3998,3.4069,3.4134,3.4196,3.4239,3.432,3.4326,3.4369,3.4358,3.4369,3.4463,3.4494,3.4556,3.4583,3.4574,3.4694,3.4673,3.464,3.4579,3.4693,3.4737,3.4755,3.4512,3.451,3.4509,3.4507,0,0,3.4185,3.4242,3.4266,3.4291,3.434,3.4394,3.4472,3.4533,3.4568,3.4612,3.4675,3.4764,3.4732,3.4765,3.4759,3.4811,3.4922,3.477,3.4771,3.4795,3.5052,3.5076,3.5097,3.4906,3.4909,3.4912,3.5047,0,3.4328,3.4466,3.4463,3.459,3.4653,3.4622,3.4689,3.4724,3.4735,3.4788,3.4799,3.4861,3.4816,3.4835,3.4885,3.4898,3.4973,3.4889,3.4961,3.4964,3.4949,3.5121,3.5147,3.5274,3.5065,3.5068,3.507,0,3.4515,3.4564,3.4698,3.4733,3.4759,3.482,3.4873,3.4926,3.4963,3.4967,3.5003,3.4987,3.5062,3.5,3.5101,3.5043,3.5072,3.5083,3.5087,3.5093,3.5023,3.5129,3.5315,3.5333,3.5098,3.5096,3.5094,0,3.4634,3.4734,3.4826,3.4849,3.4894,3.4936,3.4956,3.499,3.5026,3.5071,3.5093,3.5147,3.5176,3.5217,3.5214,3.517,3.5316,3.5254,3.5318,3.5318,3.535,3.5347,3.554,3.5372,3.5372,3.5371,3.5371,0,3.4793,3.4875,3.488,3.4936,3.5025,3.5019,3.5107,3.5122,3.5152,3.5208,3.5184,3.5237,3.5231,3.5283,3.5282,3.5364,3.5378,3.538,3.5379,3.5382,3.5381,3.54,3.539,3.5376,3.5375,3.5374,3.5373,0,3.4942,3.4949,3.5046,3.5079,3.5089,3.5153,3.518,3.5231,3.5239,3.531,3.5326,3.5337,3.5397,3.5398,3.5468,3.5466,3.5565,3.5555,3.5553,3.555,3.5613,3.5606,3.5823,3.585,3.5666,3.5668,3.5669,0,3.5043,3.5105,3.5144,3.518,3.5202,3.5261,3.5297,3.5292,3.5329,3.5374,3.5419,3.5477,3.5523,3.5619,3.5632,3.5683,3.5672,3.5744,3.5679,3.5679,3.5669,3.5665,3.5669,3.5757,3.5759,3.576,3.5762,0,3.5219,3.5218,3.5271,3.5324,3.5367,3.5408,3.5446,3.5477,3.5475,3.5518,3.5579,3.5614,3.5683,3.5739,3.5788,3.5806,3.5783,3.5782,3.5799,3.5802,3.5797,3.5797,3.5585,3.5777,3.5775,3.5774,3.5773,3.5773,3.5345,3.5397,3.5432,3.549,3.5518,3.5553,3.5602,3.5614,3.5665,3.5722,3.5715,3.5782,3.5813,3.5877,3.5898,3.5949,3.5923,3.5949,3.5955,3.5961,3.5966,3.579,3.5958,3.5957,3.5957,3.5957,3.5956,0,3.5518,3.5538,3.5591,3.5645,3.5689,3.5664,3.5704,3.5742,3.5802,3.5834,3.5878,3.5946,3.5999,3.6015,3.6066,3.6103,3.6093,3.6116,3.6112,3.6116,3.5987,3.5966,3.6123,3.6123,3.6123,3.6123,3.6123,3.6123,3.5613,3.5698,3.5701,3.5798,3.5817,3.5882,3.5907,3.5937,3.5962,3.6039,3.6084,3.6094,3.6118,3.617,3.6216,3.6219,3.6238,3.6265,3.6263,3.6142,3.6126,3.611,3.609,3.627,3.627,3.6387,3.6388,3.6389]}]]